Regional Weather Roundup
Issued by NWS

Home | Current Version | Previous Version | Graphics & Text | Print | Product List | Glossary On
Versions: 1 2 3 4 5 6 7 8 9 10 11 12 13 14 15 16 17 18 19 20 21 22 23 24 25 26 27 28 29 30 31 32 33 34 35 36 37 38 39 40 41 42 43 44 45 46 47 48 49 50
000
ASUS43 KLSX 252210
RWRMO

WEATHER SUMMARY FOR MISSOURI
NATIONAL WEATHER SERVICE SPRINGFIELD MO
500 PM CDT FRI MAY 25 2018

NOTE: "FAIR" INDICATES FEW OR NO CLOUDS BELOW 12,000 FEET WITH NO
       SIGNIFICANT WEATHER AND/OR OBSTRUCTIONS TO VISIBILITY.
       CURRENT SKY AND/OR WEATHER CONDITIONS ARE NOT AVAILABLE FOR
       CHILLICOTHE AND FARMINGTON.

MOZ001>031-035>038-043-044-053-054-252300-
...NORTHERN AND WESTERN MISSOURI...

CITY           SKY/WX    TMP DP  RH WIND       PRES   REMARKS
KANSAS CTY INT PTSUNNY   84  66  54 W7        29.82F
KANSAS C DTWN  MOSUNNY   85  65  51 W7        29.80F
LEE`S SUMMIT   MOSUNNY   82  66  58 SW10      29.83F
ST JOSEPH      SUNNY     91  62  37 SW10      29.78F HX  91
CHILLICOTHE      N/A     86  66  51 S6        29.80F
KIRKSVILLE     CLOUDY    82  67  60 SW8       29.81F

$$
MOZ066>068-077>081-088>096-101>105-252300-
...SOUTHWEST MISSOURI...

CITY           SKY/WX    TMP DP  RH WIND       PRES   REMARKS
SPRINGFIELD    MOSUNNY   85  63  47 NW12      29.82F
JOPLIN         TSTM      79  67  66 N10G17    29.85S
BRANSON        PTSUNNY   84  68  58 S7        29.85F

$$
MOZ032>034-039>042-045>050-055>058-069>072-252300-
...CENTRAL MISSOURI...

CITY           SKY/WX    TMP DP  RH WIND       PRES   REMARKS
COLUMBIA       MOSUNNY   79  68  69 SW8       29.83F
JEFFERSON CITY MOSUNNY   81  68  64 VRB5      29.82F
ROLLA          PTSUNNY   79  69  71 SW5       29.85S
SEDALIA        MOSUNNY   81  69  67 SW5       29.84F
WHITEMAN AFB   MOSUNNY   79  71  75 W8        29.79F
WARRENSBURG    CLOUDY    79  66  65 S7        29.82F
OSAGE BEACH    MOSUNNY   82  72  71 VRB3      29.84F

$$
MOZ051-052-059>065-252300-
...EAST CENTRAL MISSOURI...

CITY           SKY/WX    TMP DP  RH WIND       PRES   REMARKS
ST LOUIS INTL  CLOUDY    81  66  60 SW17      29.82F
SPIRIT OF STL  CLOUDY    79  67  66 S9        29.81S
ST CHARLES     CLOUDY    83  68  60 SW10      29.79F

$$
MOZ072>076-082>087-097>100-106>115-252300-
...SOUTH CENTRAL AND SOUTHEAST MISSOURI...

CITY           SKY/WX    TMP DP  RH WIND       PRES   REMARKS
CAPE GIRARDEAU FAIR      74  69  85 SE8       29.89R
FARMINGTON     CLOUDY    77  69  76 S9        29.88S
POPLAR BLUFF   LGT RAIN  76  70  82 SW3       29.88F
WEST PLAINS    CLOUDY    73  66  78 SE9       29.88F

$$




USA.gov is the U.S. government's official web portal to all federal, state and local government web resources and services.